Flag for India Weather past 2 weeks in Tiruchirappalli, Tamil Nadu, India

Now
84 °F

Fog.


Feels Like: 94 °F
Forecast: 77 / 95 °F
Wind: No wind

Location: Tiruchchirapalli

Current Time: Sep 4, 2015 at 1:14:44 AM

Latest Report: Sep 4, 2015 at 12:10 AM


Visibility: 3 mi

Pressure: 29.83 "Hg

Humidity: 79%

Dew point: 77 °F

Location of TiruchirappalliLocation

Historic Weather in Tiruchirappalli — Graph

°F

Tiruchirappalli temperature yesterday

Maximum temperature yesterday: 95 °F (at 3:10 PM)
Minimum temperature yesterday: 77 °F (at 2:40 AM)
Average temperature yesterday: 86 °F

Past Weeks' High & Low Weather Summary

 TemperatureHumidityPressure
High102 °F (Aug 30, 3:40 PM)94% (Aug 21, 11:40 PM)29.89 "Hg (Aug 21, 11:40 PM)
Low77 °F (Aug 21, 11:40 PM)33% (Aug 28, 2:40 PM)29.62 "Hg (Aug 27, 4:10 PM)
Average87 °F63%29.76 "Hg
* Reported Aug 19 11:40 PM — Sep 3 11:40 PM, Tiruchirappalli, Weather by CustomWeather, © 2015

Note: Actual official high and low records may vary slightly from our data, if they occured in-between our weather recording intervals... More about our weather records

Advertising

Tiruchirappalli weather history for previous 24 hours

 ConditionsComfort  
Time TempWeatherWind HumidityBarometerVisibility
11:40 PM
Thu, Sep 3
84 °FFog.2 mph79%29.83 "Hg3 mi
10:40 PM86 °FPassing clouds.6 mph75%29.86 "Hg4 mi
9:40 PM86 °FPassing clouds.5 mph75%29.83 "Hg4 mi
8:40 PM88 °FPassing clouds.3 mph70%29.80 "Hg4 mi
8:10 PM88 °FPassing clouds.3 mph66%29.80 "Hg4 mi
7:40 PM88 °FPassing clouds.3 mph66%29.77 "Hg4 mi
7:10 PM88 °FPassing clouds.5 mph66%29.77 "Hg4 mi
6:40 PM90 °FScattered clouds.6 mph59%29.74 "Hg4 mi
6:10 PM91 °FScattered clouds.5 mph56%29.71 "Hg4 mi
5:40 PM91 °FScattered clouds.5 mph56%29.71 "Hg4 mi
5:10 PM93 °FScattered clouds.5 mph49%29.71 "Hg4 mi
4:40 PM95 °FScattered clouds.2 mph47%29.71 "Hg4 mi
3:40 PM95 °FBroken clouds.2 mph47%29.71 "Hg4 mi
3:10 PM95 °FBroken clouds.2 mph50%29.71 "Hg4 mi
2:40 PM93 °FBroken clouds.2 mph53%29.71 "Hg4 mi
2:10 PM93 °FBroken clouds.2 mph53%29.74 "Hg4 mi
1:40 PM93 °FBroken clouds.No wind56%29.74 "Hg4 mi
1:10 PM91 °FBroken clouds.2 mph63%29.77 "Hg4 mi
12:40 PM91 °FBroken clouds.No wind59%29.80 "Hg4 mi
11:40 AM90 °FBroken clouds.2 mph63%29.80 "Hg4 mi
11:10 AM88 °FBroken clouds.3 mph62%29.80 "Hg4 mi
10:40 AM88 °FBroken clouds.2 mph66%29.83 "Hg4 mi
10:10 AM86 °FMore clouds than sun.3 mph66%29.83 "Hg4 mi
8:40 AM82 °FFog.No wind84%29.80 "Hg2 mi
7:40 AM81 °FFog.No wind84%29.80 "Hg2 mi
7:10 AM81 °FFog.2 mph84%29.77 "Hg2 mi
6:10 AM79 °FPartly cloudy.No wind89%29.74 "Hg2 mi
5:40 AM79 °FPassing clouds.No wind89%29.74 "Hg2 mi
4:40 AM77 °FPassing clouds.No wind94%29.74 "Hg2 mi
3:40 AM77 °FPassing clouds.No wind94%29.74 "Hg2 mi
3:10 AM77 °FPassing clouds.No wind94%29.74 "Hg2 mi
2:40 AM77 °FPassing clouds.No wind94%29.74 "Hg2 mi
2:10 AM79 °FPassing clouds.No wind84%29.74 "Hg2 mi
1:40 AM79 °FPassing clouds.No wind84%29.74 "Hg2 mi
1:10 AM79 °FPartly cloudy.2 mph89%29.74 "Hg2 mi
Weather by CustomWeather, © 2015

See weather overviewHow to use our weather pages